SCP
1 1 1 0 0 0 0 1 1 1 1 1 1 1 1 1 1 1 1 1 1 1 1 1 1 1 1 1 1 1 1 1 1 1 1 0 0 0 0 0 1 1 1
1 0 0 -0 -0 -0 0 0 0 1 1 1 1 1 1 1 1 1 1 1 1 1 1 1 1 1 1 1 1 1 1 1 1 1 1 0 0 0 0 0 0 0 0
0 0 -0 -0 -0 -0 -0 0 0 0 0 0 0 0 0 0 1 1 1 1 1 1 1 1 1 1 1 1 1 1 1 1 1 1 1 1 0 0 0 0 0 0 0
-0 -0 -0 -0 -1 -0 -0 0 0 0 0 0 0 0 0 0 0 0 0 0 0 0 0 1 1 1 1 1 1 1 1 1 1 1 1 1 0 0 0 0 0 0 0
-0 -0 -0 -0 -0 -0 -0 0 0 0 0 0 0 0 0 0 0 0 0 0 0 0 0 0 0 1 1 1 1 1 1 1 1 1 1 0 0 0 0 0 0 0 0
-0 -0 -0 -0 -0 -0 0 0 0 0 0 0 0 0 0 0 0 0 0 0 0 0 0 0 0 0 0 1 1 1 1 1 1 1 0 0 0 0 0 0 0 0 0
-0 -0 -0 -0 0 0 0 0 0 0 0 0 0 0 0 0 0 0 0 0 0 0 0 0 0 0 0 0 0 0 1 1 1 0 0 0 0 0 0 0 0 0 0
-0 -0 -0 0 0 0 0 0 0 0 0 0 0 0 0 0 0 0 0 0 0 0 0 0 0 0 0 0 0 0 0 0 0 0 0 0 0 0 0 0 0 0 0
-0 -0 -0 0 0 0 0 0 0 0 0 0 0 0 0 0 0 0 0 0 0 0 0 0 0 0 0 0 0 0 0 0 0 0 0 0 0 0 0 0 0 0 0
-0 -0 0 0 0 0 0 0 0 0 0 0 0 0 0 0 0 0 0 0 0 0 0 0 0 0 0 0 0 0 0 0 0 0 0 0 0 0 0 0 0 0 0
-0 0 0 0 0 0 0 0 0 0 0 0 0 0 0 0 0 0 0 0 0 0 0 0 0 0 0 0 0 0 0 0 0 0 0 0 0 0 0 0 0 0 0
0 0 0 0 0 0 0 0 0 0 0 0 0 0 0 0 0 0 0 0 0 0 0 0 0 0 0 0 0 0 0 0 0 0 0 0 0 0 0 0 0 0 0
0 0 0 0 0 0 0 0 0 0 0 0 0 0 0 0 0 0 0 0 0 0 0 0 0 0 0 0 0 0 0 0 0 0 0 0 0 0 0 0 0 0 0
0 0 0 0 0 0 0 0 0 0 0 0 0 0 0 0 0 0 0 0 0 0 0 0 0 0 0 0 0 0 0 0 0 0 0 0 0 0 0 0 0 0 0
0 0 -0 0 0 0 0 0 0 0 0 0 0 0 0 0 0 0 0 0 0 0 0 0 0 0 0 0 0 0 0 0 0 0 0 0 0 0 0 0 0 0 0
0 0 0 0 0 0 0 0 0 0 0 0 0 0 0 0 0 0 0 0 0 0 0 0 0 0 0 0 0 0 0 0 0 0 0 0 0 0 0 0 0 0 0
0 0 0 0 0 0 0 0 0 0 0 0 0 0 0 0 0 0 0 0 0 0 0 0 0 0 0 0 0 0 0 0 0 0 0 0 0 0 0 0 0 0 0
0 0 0 0 0 0 0 0 0 0 0 0 0 0 0 0 0 0 0 0 0 0 0 0 0 0 0 0 0 0 0 0 0 -0 -0 -0 0 0 0 0 0 0 0
0 0 0 0 0 0 0 0 0 0 0 0 0 0 0 0 0 0 0 0 0 0 0 0 0 0 0 0 0 0 0 0 0 0 -0 -0 -0 0 0 0 0 0 0
0 0 0 0 0 0 0 0 0 0 0 0 0 0 0 0 0 0 0 0 0 0 0 0 0 0 0 0 0 0 0 0 0 0 0 0 0 0 0 0 0 0 0
0 0 0 0 0 0 0 0 0 0 0 0 0 0 0 0 0 0 0 0 0 0 0 0 0 0 0 0 -0 0 -0 0 0 0 0 0 0 0 0 0 0 0 0
0 0 0 0 0 0 0 0 0 0 0 0 0 0 0 0 0 0 0 0 0 0 0 0 0 0 0 0 0 0 0 -0 -0 0 0 0 0 0 0 0 0 0 0
0 0 0 0 0 0 0 0 0 0 0 0 0 0 0 0 0 0 0 0 0 0 0 0 0 0 0 0 0 0 0 0 -0 -0 0 0 0 0 0 0 0 0 0
0 0 0 0 0 0 0 0 0 0 0 0 0 0 0 0 0 0 0 0 0 0 0 0 0 0 0 0 0 0 0 0 0 0 0 0 0 0 0 0 0 0 0
0 0 0 0 0 0 0 0 0 0 0 0 0 0 0 0 0 0 0 0 0 0 0 0 0 0 0 0 0 0 0 0 0 0 0 0 0 0 0 0 0 0 -0
0 0 0 0 0 0 0 0 0 0 0 0 0 0 0 0 0 0 0 0 0 0 0 0 0 0 0 0 0 0 0 0 0 0 0 0 0 0 0 0 0 0 -0
Wind_Speed
3 4 4 4 4 4 4 4 4 3 3 2 2 3 4 4 4 4 6 6 6 6 6 6 7 6 7 7 7 6 7 6 4 3 5 6 7 9 8 7 7 8 9
2 2 2 2 3 3 4 4 4 4 3 2 2 2 2 2 3 3 4 5 5 5 5 5 5 5 5 6 6 6 5 4 5 4 3 4 4 5 7 6 7 8 6
4 3 2 2 2 3 4 4 4 3 2 2 1 1 1 2 2 3 3 4 5 5 4 5 5 5 5 5 6 6 7 6 5 6 5 4 5 2 2 4 5 5 5
3 4 4 4 4 4 3 3 3 2 2 1 1 2 1 3 3 3 3 5 5 5 4 5 5 5 5 5 6 6 5 6 6 5 6 6 4 3 3 2 3 4 4
5 5 5 4 4 3 2 2 2 2 1 1 1 1 2 3 3 3 5 5 4 4 5 5 4 4 5 6 6 6 7 7 7 6 4 6 6 6 5 5 3 2 2
4 4 4 3 3 2 2 2 3 3 2 2 2 2 3 3 4 5 5 4 4 4 5 5 5 5 5 6 6 7 8 8 9 7 6 6 5 6 6 7 4 3 1
3 3 4 4 4 3 3 3 3 4 3 2 3 3 4 4 5 5 5 5 4 4 5 5 5 5 6 6 6 7 7 8 9 8 7 7 7 5 5 5 4 3 1
4 5 5 5 4 4 3 3 4 5 4 4 4 4 4 3 4 4 4 5 5 5 6 7 7 7 7 7 6 6 7 6 7 8 8 6 6 5 5 5 5 3 2
7 7 7 7 6 6 4 4 5 5 5 5 5 5 4 4 5 5 4 4 5 5 6 7 7 7 7 6 6 5 6 6 6 6 6 5 4 5 5 5 5 6 4
9 10 9 9 8 7 6 5 4 5 5 5 5 5 5 5 5 4 5 5 6 6 6 7 7 7 6 6 5 5 5 4 4 3 4 4 3 3 4 4 4 4 4
9 9 9 9 9 9 9 8 7 6 5 5 5 6 6 5 5 5 5 5 5 5 6 6 6 6 6 5 4 4 4 3 2 2 3 3 2 3 3 3 4 3 4
7 7 8 9 11 12 11 9 8 7 7 6 6 7 6 5 5 5 5 5 5 4 5 5 5 5 4 4 3 3 2 1 1 1 2 2 2 3 3 3 4 4 4
8 8 9 10 10 10 10 10 9 9 8 7 7 7 6 6 6 6 5 4 4 4 3 4 4 4 4 3 2 1 0 1 2 2 3 3 4 4 4 5 6 6 6
8 9 8 8 8 8 9 10 11 9 9 8 7 8 8 7 7 6 5 4 4 3 3 2 3 3 3 2 2 2 3 3 4 3 4 4 4 5 6 6 7 8 9
10 10 10 9 9 9 9 10 10 10 9 9 9 9 8 6 6 5 5 4 3 3 2 1 2 2 2 2 3 3 4 5 5 5 5 6 9 9 7 7 8 9 8
11 11 10 10 10 10 10 11 11 11 9 9 10 9 8 7 6 6 5 4 3 2 1 1 0 1 2 4 5 6 6 6 7 7 6 7 9 11 13 14 12 10 10
11 11 11 10 10 10 10 10 10 11 10 9 10 9 8 8 7 6 5 5 5 3 2 1 2 2 3 5 7 9 7 6 6 6 5 6 7 8 9 13 14 12 11
11 11 11 10 10 10 10 9 10 10 10 9 9 9 8 8 7 6 7 6 5 4 4 3 3 3 3 5 8 9 7 7 6 5 5 7 6 6 8 10 10 9 8
11 11 10 11 10 11 10 10 10 10 10 10 9 9 9 9 8 7 7 6 6 6 5 4 5 5 4 6 8 8 6 7 6 5 6 6 7 8 11 11 10 9 7
11 10 10 10 10 11 9 9 11 10 11 11 10 9 9 9 9 8 7 5 6 7 7 6 5 6 6 7 9 9 6 7 6 5 5 7 8 8 9 9 9 9 6
13 12 11 10 10 10 8 9 10 12 12 11 10 10 9 9 9 7 6 6 7 7 7 7 6 6 6 8 9 9 6 7 6 5 4 4 8 9 9 8 7 8 7
13 12 11 11 11 10 9 10 12 12 11 10 11 11 9 9 8 6 6 5 7 9 9 8 6 5 5 6 8 10 9 8 7 6 4 5 8 9 9 8 9 11 8
12 11 11 12 11 10 9 11 12 11 11 10 11 11 10 8 7 6 6 5 6 8 8 8 8 6 5 5 8 9 11 11 6 5 8 9 10 9 8 9 10 8 5
12 12 12 12 12 11 10 11 12 11 10 10 10 10 9 8 8 5 5 5 6 8 9 9 8 7 6 6 6 6 7 9 7 6 8 9 9 7 7 7 5 4 4
12 11 11 12 14 12 12 12 11 10 10 10 10 9 8 8 7 6 5 6 7 9 10 10 10 10 9 10 12 10 8 8 8 8 5 4 4 4 4 4 3 3 4
12 12 12 13 13 13 12 12 11 9 9 9 9 7 7 6 6 6 6 8 8 12 14 13 12 10 11 16 16 14 14 14 15 9 6 5 5 5 5 4 3 3 3
Wind_Direction
61 64 81 103 110 114 127 139 149 162 159 170 200 225 242 248 249 251 257 258 254 252 246 249 250 238 231 234 233 229 230 233 218 234 261 260 246 244 243 241 242 245 244
85 78 83 98 130 146 153 156 170 177 185 195 199 214 240 258 255 269 277 273 271 267 263 254 256 250 241 235 231 226 226 228 200 204 234 272 275 247 243 237 238 243 240
169 174 180 191 174 172 177 175 184 188 201 204 197 295 324 310 304 298 295 294 290 283 280 276 266 256 245 241 235 227 224 237 222 204 205 221 241 274 266 240 237 239 237
201 204 207 206 208 207 194 181 184 194 208 191 198 214 245 273 277 290 294 304 304 302 299 291 281 268 255 247 245 233 227 229 235 222 217 223 213 226 268 264 243 237 236
227 230 232 225 224 217 206 200 190 205 210 190 200 219 255 263 284 295 297 300 302 303 302 294 284 274 263 256 252 246 232 227 229 225 217 226 230 225 232 252 238 231 239
255 262 268 268 269 261 241 221 211 225 224 213 215 218 244 267 288 296 298 299 297 294 296 297 289 281 271 265 261 254 244 236 233 230 223 217 214 211 215 228 227 222 231
281 290 286 278 272 265 254 245 239 247 243 233 236 238 245 255 265 278 285 292 295 292 293 295 288 284 277 271 265 261 255 245 238 234 231 226 225 213 208 216 217 215 211
345 336 326 314 301 285 265 252 249 256 254 246 248 249 250 255 261 265 272 278 280 283 286 290 286 283 281 278 271 266 260 250 243 240 235 229 225 216 208 206 193 197 194
3 358 353 349 339 327 307 277 265 267 267 259 259 260 253 254 261 267 270 277 280 285 288 290 291 290 286 281 276 270 265 256 245 239 233 230 221 214 212 206 195 185 187
13 10 6 1 356 350 344 338 304 277 272 268 262 265 256 254 260 267 271 278 286 290 296 297 298 297 294 286 276 272 267 258 249 233 220 216 210 203 199 198 194 181 168
14 11 6 2 359 359 357 348 335 317 301 284 274 271 265 259 260 263 269 276 286 292 295 300 302 301 299 293 281 275 270 254 244 226 197 190 180 183 183 174 164 156 144
10 7 5 6 6 2 354 345 334 324 311 296 282 273 269 264 259 261 268 276 281 285 294 302 304 303 303 301 293 286 280 242 194 178 153 137 126 121 140 144 139 137 132
7 5 5 4 358 351 345 339 332 323 316 308 293 283 273 264 259 259 264 270 271 278 296 308 314 319 318 317 316 304 314 111 115 123 121 112 109 107 118 121 122 119 118
0 359 355 349 341 336 333 332 330 325 320 312 297 284 272 263 261 257 255 256 258 263 279 301 315 327 339 352 19 66 79 82 81 80 85 89 102 109 115 113 112 113 110
354 350 343 336 332 330 327 326 324 323 320 314 302 289 282 270 261 252 245 242 242 247 250 282 326 339 5 43 75 87 89 89 81 71 70 79 88 88 94 109 115 116 113
340 334 329 325 323 321 318 319 319 319 317 310 303 297 292 280 265 253 235 225 230 235 214 192 69 40 52 65 82 97 94 87 84 77 70 80 80 85 89 96 101 112 121
325 319 314 309 306 306 305 306 307 312 312 308 307 306 297 286 274 257 228 215 213 210 191 172 140 112 88 86 88 91 95 90 85 85 82 83 80 83 94 89 85 83 90
310 305 301 298 297 297 297 297 301 307 308 308 308 308 304 294 283 262 235 216 201 199 191 181 161 137 125 113 105 99 94 89 82 79 89 99 92 93 100 98 89 80 75
294 291 288 288 289 293 295 299 301 303 304 304 303 304 304 300 287 264 246 218 198 197 192 181 169 156 148 133 122 116 106 98 86 78 80 97 99 102 108 105 101 91 79
300 297 295 294 292 291 293 295 296 298 295 294 294 296 296 295 287 268 252 225 201 197 186 180 177 167 160 157 140 129 121 111 103 87 79 88 102 107 113 115 114 107 98
298 299 300 297 291 292 295 293 293 289 288 290 291 290 291 290 284 270 248 225 203 190 184 179 178 171 166 165 156 144 134 133 126 118 106 99 108 108 109 112 114 121 118
296 296 295 292 291 291 291 289 288 285 289 292 292 290 288 291 291 277 254 226 205 191 185 177 175 174 169 169 167 160 148 143 135 134 129 124 122 116 114 109 115 116 110
291 290 286 287 288 285 280 281 284 288 291 290 289 288 288 289 285 273 258 234 210 197 187 181 180 176 171 172 171 165 155 146 134 139 141 133 124 113 105 110 116 116 112
287 286 285 284 286 284 280 275 281 286 287 286 288 286 284 285 286 273 255 238 220 201 189 185 182 174 169 169 162 157 151 142 130 128 127 120 113 103 103 104 103 106 113
283 280 279 279 280 281 280 279 280 281 283 286 287 285 278 276 283 278 260 248 235 212 194 188 181 175 179 185 171 161 159 155 147 133 119 117 120 119 114 107 105 109 115
284 283 279 276 279 279 279 279 276 274 276 284 285 281 275 275 277 276 278 257 247 220 201 185 177 183 176 164 168 166 159 151 146 136 143 148 151 152 149 143 133 131 135